Location: Cussy
(47.0410°N, 4.6412°E)
Time: 14:10:06
(UTC+00:00)

Meteor 1-4 Rocket - Pass Details

Date: 30 November 2020
Orbit: 449 x 500 km, 81.2° (Epoch: 26 January)

Event Time Altitude Azimuth Distance (km) Brightness Sun altitude
Rises 17:56:54 0° 204° (SSW) 2,525 6.7 -20.2°
Reaches altitude 10° 17:59:04 10° 211° (SSW) 1,642 5.8 -20.5°
Maximum altitude 18:02:31 44° 285° (WNW) 664 3.6 -21.1°
Enters shadow 18:04:47 19° 350° (N) 1,189 4.5 -21.5°
